Showing default

CHINASAT 10R, 63075

Orbit data source: Space-Track

CHINASAT 10R, 63075 is a payload satellite owned by China Satcom (CN) in GEO that was launched on Sat, 22 Feb 2025 UTC via a CHANG ZHENG 3B launch vehicle from the Xichang Space Center, China (XSC). Payload-class satellites include a variety of spacecraft equipped with specific instruments for various scientific and technological missions. These include communications satellites like Starlink; space stations such as the ISS; scientific satellites like the Hubble; Earth observation satellites from companies like Planet Labs, Umbra, and HawkEye 360; GPS; miniature CubeSats for education and research; and military/defense satellites.

Not visible in the next 10 days
Identifier
63075, 2025-036A
Orbit
GEO
Country
Flag of CNCN / PRC
Related business
Manufacturer
CAST?
Mission
Operational Civil Communications
Bus & Motor
DFH-4?, DFH-4 LAE
Mass
~5,250 kg wet, ~2,500 kg dry
Launch date (UTC)
2025-02-22 (1 year ago)
Launch vehicle
CHANG ZHENG 3B
Launch site
Xichang Space Center, China (XSC)
Object type
Payload
Rocket body
Debris
Shape & HBR
Box + 2 Pan, 22.5 m
Radar Cross Section
34.063 m², Large (>1 m²)

Expand to show TLE details & history
Last TLE update: 14 hours ago

TLE from 14 hours ago
0 CHINASAT 10R
1 63075U 25036A   26093.91291280 -.00000354  00000-0  00000-0 0  9992
2 63075   0.0723 256.4875 0001197 247.1278 127.7812  1.00274543  4212
Epoch: 2026-04-03T21:54Z
TLE epoch observation values (Epoch: 2026-04-03T21:54:35.665Z)
Latitude
0.03785°
Longitude
110.52724°
Altitude
35,788.377 km
Speed
3.075 km/s
True Right ascension
18h 05m 39s
True Declination
0° 02' 16"
Sunlit
Object was in daylight at epoch
Visualization orbit readout
Latitude
Unknown
Longitude
Unknown
Altitude
Unknown
Speed
Unknown
Apparent Right ascension
Unknown
Apparent Declination
Unknown
Sunlit
N/A
Visualization observer readout
Local Sidereal Time
17:25:01
Azimuth
Unknown
Elevation
Unknown
Doppler factor
Unknown
Orbital elements
Apogee altitude
35,791.939 km
Perigee altitude
35,781.845 km
Semi-major axis
42,165.029 km
Eccentricity
0.00012
Inclination
0.0723°
RAAN
256.4875°
Arg. of periapsis
247.1278°
True anomaly
127.79204°
Mean anomaly
127.7812°
Eccentric anomaly
127.78662°
Mean motion
0.25068 °/min
Orbital period
1,436.11 mins
BSTAR
0
Loading maneuver chart data...
Computing Atmospheric mass density...
Loading historical data...
Loading historical data...
Loading historical data...
Loading historical data...
Loading historical data...
Loading historical data...
Loading historical data...
Other satellites on launch #36 in the year 2025 (2025-02-22 UTC)

Documentation

Showing up to 5 results
|